| time (UTC) | temp F | wind direction | speed MPH | gust MPH | rain 1hr in | rain 24hr in | rain mn in | humidity % | barometer mb |
| 20260505064626 | 46 | 310 | 0.0 | 2.0 | 0.00 | 0.00 | 0.00 | 62 | 1001.0 |
| 20260505063126 | 46 | 310 | 1.0 | 3.0 | 0.00 | 0.00 | 0.00 | 61 | 1001.0 |
| 20260505061626 | 47 | 263 | 1.0 | 3.0 | 0.00 | 0.00 | 0.00 | 60 | 1000.7 |
| 20260505060126 | 47 | 263 | 1.0 | 3.0 | 0.00 | 0.00 | 0.00 | 59 | 1000.8 |
| 20260505054626 | 47 | 359 | 0.0 | 3.0 | 0.00 | 0.00 | 0.00 | 58 | 1000.7 |
| 20260505053126 | 48 | 317 | 1.0 | 4.0 | 0.00 | 0.00 | 0.00 | 57 | 1000.7 |
| 20260505051626 | 48 | 352 | 0.0 | 1.0 | 0.00 | 0.00 | 0.00 | 57 | 1000.7 |
| 20260505050126 | 48 | 352 | 0.0 | 2.0 | 0.00 | 0.00 | 0.00 | 56 | 1000.8 |
| 20260505041735 | 50 | 329 | 0.0 | 1.0 | 0.00 | 0.00 | 0.00 | 52 | 1000.7 |
| 20260505041626 | 50 | 329 | 0.0 | 1.0 | 0.00 | 0.00 | 0.00 | 52 | 1000.7 |
| 20260505040126 | 50 | 329 | 0.0 | 1.0 | 0.00 | 0.00 | 0.00 | 51 | 1000.7 |
| 20260505034626 | 51 | 329 | 1.0 | 4.0 | 0.00 | 0.00 | 0.00 | 50 | 1000.5 |
| 20260505033126 | 51 | 350 | 2.0 | 2.0 | 0.00 | 0.00 | 0.00 | 49 | 1000.2 |
| 20260505031626 | 51 | 349 | 0.0 | 1.0 | 0.00 | 0.00 | 0.00 | 49 | 999.8 |
| 20260505030126 | 52 | 349 | 1.0 | 3.0 | 0.00 | 0.00 | 0.00 | 47 | 999.4 |
| 20260505024702 | 53 | 310 | 1.0 | 2.0 | 0.00 | 0.00 | 0.00 | 45 | 999.3 |
| 20260505024626 | 53 | 310 | 1.0 | 2.0 | 0.00 | 0.00 | 0.00 | 45 | 999.3 |
| 20260505023126 | 54 | 310 | 2.0 | 3.0 | 0.00 | 0.00 | 0.00 | 44 | 998.8 |
| 20260505021626 | 55 | 327 | 2.0 | 4.0 | 0.00 | 0.00 | 0.00 | 43 | 998.8 |
| 20260505020126 | 55 | 320 | 2.0 | 3.0 | 0.00 | 0.00 | 0.00 | 43 | 998.5 |
| 20260505014626 | 56 | 287 | 3.0 | 8.0 | 0.00 | 0.00 | 0.00 | 42 | 998.2 |
| 20260505013126 | 57 | 311 | 3.0 | 4.0 | 0.00 | 0.00 | 0.00 | 42 | 998.3 |
| 20260505011626 | 57 | 15 | 2.0 | 5.0 | 0.00 | 0.00 | 0.00 | 42 | 998.3 |
| 20260505010126 | 57 | 340 | 4.0 | 6.0 | 0.00 | 0.00 | 0.00 | 41 | 998.3 |
| 20260505004627 | 58 | 307 | 4.0 | 8.0 | 0.00 | 0.00 | 0.00 | 39 | 998.3 |
| 20260505003127 | 58 | 291 | 4.0 | 9.0 | 0.00 | 0.00 | 0.00 | 40 | 998.2 |
| 20260505001627 | 58 | 268 | 6.0 | 13.0 | 0.00 | 0.00 | 0.00 | 41 | 998.3 |
| 20260505000127 | 58 | 273 | 7.0 | 13.0 | 0.00 | 0.00 | 0.00 | 42 | 998.5 |
| 20260504234627 | 58 | 333 | 7.0 | 14.0 | 0.00 | 0.00 | 0.00 | 43 | 998.8 |
| 20260504233127 | 58 | 340 | 7.0 | 17.0 | 0.00 | 0.00 | 0.00 | 43 | 998.7 |
| 20260504231627 | 58 | 330 | 9.0 | 16.0 | 0.00 | 0.00 | 0.00 | 42 | 998.5 |
| 20260504230127 | 58 | 351 | 11.0 | 20.0 | 0.00 | 0.00 | 0.00 | 41 | 998.4 |
| 20260504224627 | 59 | 333 | 9.0 | 19.0 | 0.00 | 0.00 | 0.00 | 38 | 998.0 |
| 20260504223127 | 59 | 347 | 4.0 | 13.0 | 0.00 | 0.00 | 0.00 | 38 | 997.9 |
| 20260504221627 | 59 | 338 | 5.0 | 12.0 | 0.00 | 0.00 | 0.00 | 42 | 998.2 |
| 20260504220127 | 58 | 330 | 7.0 | 13.0 | 0.00 | 0.00 | 0.00 | 44 | 998.3 |
| 20260504214627 | 57 | 327 | 10.0 | 17.0 | 0.00 | 0.00 | 0.00 | 45 | 998.8 |
| 20260504213127 | 60 | 343 | 10.0 | 22.0 | 0.00 | 0.00 | 0.00 | 39 | 998.9 |
| 20260504211627 | 62 | 326 | 7.0 | 13.0 | 0.00 | 0.00 | 0.00 | 33 | 998.6 |
| 20260504210127 | 62 | 271 | 8.0 | 18.0 | 0.00 | 0.00 | 0.00 | 33 | 998.6 |
| 20260504204627 | 62 | 337 | 4.0 | 14.0 | 0.00 | 0.00 | 0.00 | 32 | 998.8 |
| 20260504203127 | 64 | 320 | 4.0 | 7.0 | 0.00 | 0.00 | 0.00 | 32 | 999.0 |
| 20260504201627 | 62 | 328 | 5.0 | 9.0 | 0.00 | 0.00 | 0.00 | 35 | 999.2 |
| 20260504200127 | 60 | 318 | 7.0 | 12.0 | 0.00 | 0.00 | 0.00 | 37 | 999.4 |
| 20260504194627 | 60 | 261 | 6.0 | 15.0 | 0.00 | 0.00 | 0.00 | 36 | 999.5 |
| 20260504193127 | 61 | 280 | 2.0 | 8.0 | 0.00 | 0.00 | 0.00 | 33 | 999.3 |
| 20260504191627 | 60 | 334 | 4.0 | 10.0 | 0.00 | 0.00 | 0.00 | 34 | 999.5 |
| 20260504190127 | 60 | 66 | 4.0 | 9.0 | 0.00 | 0.00 | 0.00 | 39 | 999.7 |
| 20260504184627 | 59 | 255 | 4.0 | 6.0 | 0.00 | 0.00 | 0.00 | 41 | 1000.6 |
| 20260504183127 | 59 | 351 | 8.0 | 12.0 | 0.00 | 0.00 | 0.00 | 42 | 1001.0 |
| 20260504181627 | 56 | 326 | 12.0 | 18.0 | 0.00 | 0.00 | 0.00 | 45 | 1001.4 |
| 20260504180127 | 53 | 316 | 15.0 | 22.0 | 0.00 | 0.00 | 0.00 | 51 | 1001.6 |
| 20260504174627 | 58 | 241 | 8.0 | 23.0 | 0.00 | 0.00 | 0.00 | 40 | 1001.5 |
| 20260504173127 | 61 | 302 | 6.0 | 14.0 | 0.00 | 0.00 | 0.00 | 33 | 1000.6 |
| 20260504171627 | 62 | 305 | 5.0 | 14.0 | 0.00 | 0.00 | 0.00 | 33 | 1000.6 |
| 20260504170127 | 63 | 269 | 7.0 | 13.0 | 0.00 | 0.00 | 0.00 | 32 | 1001.0 |
| 20260504160127 | 59 | 7 | 3.0 | 6.0 | 0.00 | 0.00 | 0.00 | 38 | 1002.0 |
| 20260504150127 | 55 | 240 | 4.0 | 7.0 | 0.00 | 0.00 | 0.00 | 43 | 1003.4 |
| 20260504140128 | 52 | 311 | 3.0 | 6.0 | 0.00 | 0.00 | 0.00 | 49 | 1004.0 |
| 20260504130128 | 50 | 349 | 3.0 | 5.0 | 0.00 | 0.00 | 0.00 | 53 | 1003.7 |
| 20260504120128 | 48 | 302 | 3.0 | 5.0 | 0.00 | 0.00 | 0.00 | 54 | 1004.2 |
| 20260504110128 | 47 | 280 | 3.0 | 7.0 | 0.00 | 0.00 | 0.00 | 49 | 1004.3 |
| 20260504100128 | 41 | 323 | 2.0 | 8.0 | 0.00 | 0.00 | 0.00 | 58 | 1004.5 |
| 20260504090128 | 40 | 307 | 0.0 | 2.0 | 0.00 | 0.00 | 0.00 | 57 | 1005.2 |
| 20260504081628 | 40 | 307 | 0.0 | 1.0 | 0.00 | 0.00 | 0.00 | 56 | 1005.2 |
| 20260504080128 | 40 | 307 | 0.0 | 1.0 | 0.00 | 0.00 | 0.00 | 55 | 1005.4 |
| 20260504070128 | 43 | 285 | 0.0 | 2.0 | 0.00 | 0.00 | 0.00 | 50 | 1005.7 |